Weather History for KLKU - October, 2012

Change the Weather History Date:

Sunday, October 28, 2012

  Actual Average (KCHO) Record (KCHO)
Temperature  
Mean Temperature 56 °F 53 °F  
Max Temperature 60 °F 64 °F 88 °F (1919)
Min Temperature 51 °F 41 °F 27 °F (1979)
Degree Days  
Heating Degree Days 10 13  
Month to date heating degree days 251  
Since 1 July heating degree days 309  
Cooling Degree Days 0 0  
Month to date cooling degree days 12  
Year to date cooling degree days 1033  
Growing Degree Days 6 (Base 50)    
Moisture  
Dew Point 49 °F    
Average Humidity 74    
Maximum Humidity 94    
Minimum Humidity 55    
Precipitation  
Precipitation 0.05 in 0.09 in 0.37 in (2012)
Month to date precipitation 2.82  
Year to date precipitation 35.44  
Sea Level Pressure  
Sea Level Pressure 29.69 in    
Wind  
Wind Speed 9 mph (North)    
Max Wind Speed 16 mph    
Max Gust Speed 24 mph    
Visibility 9 miles    
Events      
T = Trace of Precipitation, MM = Missing Value Source: NWS Daily Summary

Daily Weather History Graph

Daily Weather History Graph

Search for Another Location

Airport or City:

Trip Planner

Search our weather history database for the weather conditions in past years. The results will help you decide how hot, cold, wet, or windy it might be!

Date:

Astronomy

Oct. 28, 2012 Rise Set
Actual Time 7:33 AM EDT 6:16 PM EDT
Civil Twilight 7:06 AM EDT 6:43 PM EDT
Nautical Twilight 6:35 AM EDT 7:14 PM EDT
Astronomical Twilight 6:05 AM EDT 7:45 PM EDT
Moon 5:33 PM EDT (10/28) 6:25 AM EDT (10/28)
Length of Visible Light 11h 37m
Length of Day
10h 42m
Waxing Gibbous, 99% of the Moon is Illuminated
Oct 28
Waxing Gibbous
Oct 29
Full
Nov 6
Last Quarter
Nov 13
New
Nov 20
First Quarter

Hourly Weather History & Observations

Time (EDT) Temp. Dew Point Humidity Pressure Visibility Wind Dir Wind Speed Gust Speed Precip Events Conditions
12:15 AM 59.0 °F 51.8 °F 77% 29.82 in 10.0 mi North 5.8 mph - N/A   Scattered Clouds
12:35 AM 59.0 °F 51.8 °F 77% 29.81 in 10.0 mi North 5.8 mph - N/A   Scattered Clouds
12:55 AM 59.0 °F 51.8 °F 77% 29.80 in 10.0 mi NNE 6.9 mph - N/A   Mostly Cloudy
1:15 AM 59.0 °F 51.8 °F 77% 29.80 in 10.0 mi North 6.9 mph - N/A   Mostly Cloudy
1:35 AM 59.0 °F 51.8 °F 77% 29.80 in 10.0 mi North 8.1 mph - N/A   Overcast
1:55 AM 59.0 °F 51.8 °F 77% 29.80 in 10.0 mi North 8.1 mph - N/A   Overcast
2:15 AM 59.0 °F 51.8 °F 77% 29.79 in 10.0 mi North 6.9 mph - N/A   Overcast
2:35 AM 59.0 °F 51.8 °F 77% 29.79 in 10.0 mi North 8.1 mph - N/A   Overcast
2:55 AM 59.0 °F 51.8 °F 77% 29.78 in 10.0 mi North 9.2 mph - N/A   Overcast
3:15 AM 59.0 °F 51.8 °F 77% 29.77 in 10.0 mi North 9.2 mph 16.1 mph N/A   Overcast
3:35 AM 59.0 °F 51.8 °F 77% 29.77 in 10.0 mi North 9.2 mph - N/A   Overcast
3:55 AM 59.0 °F 51.8 °F 77% 29.76 in 10.0 mi NNE 11.5 mph 18.4 mph N/A   Overcast
4:15 AM 59.0 °F 51.8 °F 77% 29.76 in 10.0 mi North 6.9 mph - N/A   Overcast
4:35 AM 59.0 °F 51.8 °F 77% 29.76 in 10.0 mi NNW 10.4 mph - N/A   Overcast
4:55 AM 57.2 °F 51.8 °F 82% 29.75 in 10.0 mi NNE 10.4 mph 16.1 mph N/A   Overcast
5:15 AM 57.2 °F 51.8 °F 82% 29.75 in 10.0 mi NNE 10.4 mph 21.9 mph N/A   Overcast
5:35 AM 59.0 °F 50.0 °F 72% 29.75 in 10.0 mi NNE 11.5 mph 18.4 mph N/A   Overcast
5:55 AM 59.0 °F 50.0 °F 72% 29.75 in 10.0 mi NNE 10.4 mph 18.4 mph N/A   Overcast
6:15 AM 57.2 °F 50.0 °F 77% 29.74 in 10.0 mi North 10.4 mph 17.3 mph N/A   Overcast
6:35 AM 57.2 °F 50.0 °F 77% 29.73 in 10.0 mi NNE 12.7 mph 18.4 mph N/A   Overcast
6:55 AM 57.2 °F 48.2 °F 72% 29.72 in 10.0 mi North 11.5 mph 19.6 mph N/A   Overcast
7:15 AM 57.2 °F 48.2 °F 72% 29.73 in 10.0 mi NNE 12.7 mph 20.7 mph N/A   Overcast
7:35 AM 57.2 °F 48.2 °F 72% 29.73 in 10.0 mi NNE 11.5 mph 19.6 mph N/A   Overcast
7:55 AM 57.2 °F 48.2 °F 72% 29.75 in 10.0 mi NNE 9.2 mph 19.6 mph N/A   Overcast
8:15 AM 57.2 °F 46.4 °F 67% 29.75 in 10.0 mi NNE 11.5 mph 18.4 mph N/A   Overcast
8:35 AM 57.2 °F 46.4 °F 67% 29.75 in 10.0 mi North 13.8 mph 20.7 mph N/A   Overcast
9:15 AM 57.2 °F 46.4 °F 67% 29.74 in 10.0 mi NNE 11.5 mph 19.6 mph N/A   Overcast
9:35 AM 57.2 °F 46.4 °F 67% 29.74 in 10.0 mi NNE 9.2 mph 21.9 mph N/A   Overcast
9:55 AM 57.2 °F 46.4 °F 67% 29.74 in 10.0 mi NNE 12.7 mph 20.7 mph N/A   Overcast
10:15 AM 57.2 °F 48.2 °F 72% 29.74 in 10.0 mi North 11.5 mph 16.1 mph N/A   Overcast
10:35 AM 59.0 °F 48.2 °F 67% 29.73 in 10.0 mi NNE 6.9 mph 20.7 mph N/A   Overcast
10:55 AM 59.0 °F 48.2 °F 67% 29.73 in 10.0 mi NNE 9.2 mph 16.1 mph N/A   Overcast
11:15 AM 59.0 °F 48.2 °F 67% 29.72 in 10.0 mi NNE 10.4 mph 19.6 mph N/A   Overcast
11:35 AM 59.0 °F 48.2 °F 67% 29.71 in 10.0 mi NNE 8.1 mph 21.9 mph N/A   Overcast
11:55 AM 59.0 °F 46.4 °F 63% 29.70 in 10.0 mi North 12.7 mph 21.9 mph N/A   Overcast
12:15 PM 60.8 °F 44.6 °F 55% 29.69 in 10.0 mi North 15.0 mph 23.0 mph N/A   Mostly Cloudy
12:35 PM 60.8 °F 44.6 °F 55% 29.67 in 10.0 mi NNE 10.4 mph 24.2 mph N/A   Mostly Cloudy
1:15 PM 59.0 °F 44.6 °F 59% 29.67 in 10.0 mi North 15.0 mph 21.9 mph N/A   Overcast
1:35 PM 59.0 °F 46.4 °F 63% 29.66 in 10.0 mi North 13.8 mph 20.7 mph N/A   Overcast
1:55 PM 59.0 °F 44.6 °F 59% 29.65 in 10.0 mi NNE 16.1 mph 21.9 mph N/A   Overcast
2:15 PM 59.0 °F 46.4 °F 63% 29.64 in 10.0 mi North 9.2 mph 18.4 mph N/A   Overcast
2:35 PM 59.0 °F 46.4 °F 63% 29.63 in 10.0 mi NNE 10.4 mph 20.7 mph N/A   Overcast
2:55 PM 59.0 °F 46.4 °F 63% 29.63 in 10.0 mi NNE 10.4 mph 24.2 mph N/A   Overcast
3:15 PM 59.0 °F 44.6 °F 59% 29.63 in 10.0 mi North 13.8 mph 21.9 mph N/A   Overcast
3:35 PM 57.2 °F 44.6 °F 63% 29.63 in 10.0 mi North 10.4 mph 18.4 mph N/A   Overcast
3:55 PM 57.2 °F 44.6 °F 63% 29.64 in 10.0 mi North 8.1 mph - N/A   Overcast
4:15 PM 57.2 °F 44.6 °F 63% 29.64 in 10.0 mi North 10.4 mph 20.7 mph N/A   Overcast
4:35 PM 57.2 °F 44.6 °F 63% 29.63 in 10.0 mi North 9.2 mph 23.0 mph N/A   Overcast
4:55 PM 57.2 °F 46.4 °F 67% 29.63 in 10.0 mi North 9.2 mph 19.6 mph N/A   Overcast
5:15 PM 57.2 °F 46.4 °F 67% 29.63 in 10.0 mi North 8.1 mph - N/A   Overcast
5:35 PM 57.2 °F 46.4 °F 67% 29.63 in 7.0 mi North 13.8 mph 23.0 mph N/A   Overcast
5:55 PM 55.4 °F 48.2 °F 77% 29.63 in 10.0 mi North 11.5 mph 18.4 mph N/A   Overcast
6:15 PM 57.2 °F 48.2 °F 72% 29.63 in 10.0 mi North 11.5 mph 19.6 mph N/A   Overcast
6:35 PM 57.2 °F 46.4 °F 67% 29.64 in 10.0 mi North 12.7 mph 20.7 mph N/A   Overcast
6:55 PM 57.2 °F 46.4 °F 67% 29.64 in 10.0 mi North 10.4 mph - N/A   Overcast
7:15 PM 55.4 °F 50.0 °F 82% 29.64 in 4.0 mi North 13.8 mph 20.7 mph N/A   Overcast
7:35 PM 53.6 °F 50.0 °F 88% 29.63 in 5.0 mi North 10.4 mph - N/A   Overcast
7:55 PM 53.6 °F 50.0 °F 88% 29.63 in 5.0 mi North 15.0 mph 19.6 mph N/A   Overcast
8:15 PM 53.6 °F 50.0 °F 88% 29.62 in 3.0 mi North 12.7 mph 23.0 mph N/A   Overcast
8:35 PM 53.6 °F 50.0 °F 88% 29.62 in 3.0 mi NNW 10.4 mph 17.3 mph N/A   Overcast
8:55 PM 53.6 °F 50.0 °F 88% 29.62 in 2.5 mi North 8.1 mph 16.1 mph 0.01 in   Overcast
9:15 PM 53.6 °F 50.0 °F 88% 29.61 in 3.0 mi North 13.8 mph 21.9 mph 0.02 in   Overcast
9:35 PM 53.6 °F 50.0 °F 88% 29.60 in 2.5 mi NNW 12.7 mph 21.9 mph 0.03 in   Overcast
9:55 PM 53.6 °F 50.0 °F 88% 29.61 in 3.0 mi North 10.4 mph 21.9 mph 0.03 in   Overcast
10:15 PM 53.6 °F 50.0 °F 88% 29.60 in 5.0 mi North 9.2 mph 20.7 mph 0.01 in   Overcast
10:35 PM 53.6 °F 50.0 °F 88% 29.60 in 7.0 mi NNW 9.2 mph 18.4 mph 0.01 in   Overcast
11:15 PM 51.8 °F 50.0 °F 94% 29.59 in 10.0 mi North 12.7 mph 18.4 mph N/A   Overcast
11:35 PM 51.8 °F 48.2 °F 88% 29.58 in 7.0 mi North 9.2 mph 24.2 mph N/A   Overcast
11:55 PM 51.8 °F 48.2 °F 88% 29.57 in 10.0 mi North 11.5 mph 21.9 mph N/A   Overcast